Location: Góry Miechowskie
(50.3599°N, 20.1803°E)
Time: 22:09:35
(UTC+00:00)

Tiros 1 despin weight - Pass Details

Date: 14 September 2024
Orbit: 572 x 614 km, 48.2° (Epoch: 12 October)

Event Time Altitude Azimuth Distance (km) Brightness Sun altitude
Rises 07:03:17 0° 279° (W) 2,889 ? 25.3°
Reaches altitude 10° 07:05:43 10° 272° (W) 1,981 ? 25.6°
Maximum altitude 07:09:56 38° 204° (SSW) 947 ? 26.2°
Drops below altitude 10° 07:14:06 10° 137° (SE) 1,961 ? 26.8°
Sets 07:16:30 0° 129° (SE) 2,857 ? 27.1°
